Weather reports worldwide

Advertisment
Shoreham Airport, United Kingdom (3876): temperature & dewpoint: 18.05.2018 07:00:00 - 24.05.2018 07:00:00 (BST)Shoreham Airport, United Kingdom (3876): wind speed & gusts: 18.05.2018 07:00:00 - 24.05.2018 07:00:00 (BST)Shoreham Airport, United Kingdom (3876): wind direction: 18.05.2018 07:00:00 - 24.05.2018 07:00:00 (BST)Shoreham Airport, United Kingdom (3876): reduced air pressure: 18.05.2018 07:00:00 - 24.05.2018 07:00:00 (BST)Shoreham Airport, United Kingdom (3876): visibility: 18.05.2018 07:00:00 - 24.05.2018 07:00:00 (BST)Shoreham Airport, United Kingdom (3876): precipitation: 18.05.2018 07:00:00 - 24.05.2018 07:00:00 (BST)
Date & Time tt [°C] td [°C] ff [km/h] ff [kn] fx [km/h] fx [kn] dd ppp [hPa] vv [km] rr [mm]
24.05.2018 07:00:00 - - - - - - - - - 0,0
24.05.2018 06:00:00 12,0 10,9 24 13 - - N 1019,3 - 0,0
24.05.2018 05:00:00 11,6 10,5 21 11 - - N 1019,3 - 0,0
24.05.2018 04:00:00 12,1 10,5 21 11 - - NNW 1020,1 - 0,0
24.05.2018 03:00:00 12,3 10,2 28 15 - - N 1019,9 - 0,0
24.05.2018 02:00:00 12,9 10,5 22 12 - - NNW 1020,1 - 0,8
24.05.2018 01:00:00 13,5 10,2 15 8 - - N 1020,7 - 0,0
24.05.2018 00:00:00 14,0 10,3 26 14 - - N 1020,5 - 0,0
23.05.2018 23:00:00 14,9 10,7 24 13 - - N 1020,7 - 0,0
23.05.2018 22:00:00 15,6 12,4 16 9 - - N 1021,1 - 0,0
23.05.2018 21:00:00 15,3 13,4 15 8 - - N 1020,9 - 0,0
23.05.2018 20:00:00 15,5 13,2 13 7 - - N 1020,9 10 0,0
23.05.2018 19:00:00 17,2 12,6 16 9 - - N 1020,9 10 0,0
23.05.2018 18:00:00 17,0 12,5 11 6 - - N 1020,9 10 0,0
23.05.2018 17:00:00 18,0 11,9 16 9 - - NNE 1021,1 10 0,0
23.05.2018 16:00:00 19,0 12,5 21 11 - - NE 1021,1 10 0,0
23.05.2018 15:00:00 19,8 12,7 22 12 - - NNE 1021,4 10 0,0
23.05.2018 14:00:00 19,5 12,1 22 12 - - NNE 1021,5 10 0,0
23.05.2018 13:00:00 19,0 11,6 29 16 - - N 1021,6 10 0,0
23.05.2018 12:00:00 18,0 11,5 28 15 - - N 1021,6 10 0,0
23.05.2018 11:00:00 16,3 10,6 28 15 46 25 N 1021,7 10 0,0
23.05.2018 10:00:00 14,7 9,9 26 14 - - N 1021,9 10 0,0
23.05.2018 09:00:00 13,4 9,4 28 15 - - N 1022,0 9 0,0
23.05.2018 08:00:00 12,1 9,1 28 15 46 25 N 1021,6 8 0,0
23.05.2018 07:00:00 10,8 8,6 28 15 - - NNW 1021,2 - 0,0
23.05.2018 06:00:00 10,1 8,4 28 15 48 26 NNW 1020,3 - 0,0
23.05.2018 05:00:00 9,8 8,2 29 16 48 26 NNW 1020,2 - 0,0
23.05.2018 04:00:00 10,0 8,4 31 17 46 25 NNW 1019,9 - 0,0
23.05.2018 03:00:00 10,2 8,5 31 17 - - NNW 1019,9 - 0,0
23.05.2018 02:00:00 10,9 8,7 29 16 - - NNW 1019,8 - 0,0
23.05.2018 01:00:00 11,7 9,1 22 12 - - N 1019,7 - 0,0
23.05.2018 00:00:00 12,6 9,3 11 6 - - NNW 1019,5 - 0,0
22.05.2018 23:00:00 13,7 9,1 5 3 - - N 1019,2 - 0,0
22.05.2018 22:00:00 15,0 10,1 13 7 - - N 1018,8 - 0,0
22.05.2018 21:00:00 16,4 10,7 15 8 - - N 1017,7 - 0,0
22.05.2018 20:00:00 19,7 10,3 21 11 - - NNE 1017,1 10 0,0
22.05.2018 19:00:00 21,6 9,8 18 10 - - NNE 1016,5 10 0,0
22.05.2018 18:00:00 22,7 11,3 21 11 - - NNE 1015,6 10 0,0
22.05.2018 17:00:00 22,1 12,4 15 8 - - N 1015,4 10 0,0
22.05.2018 16:00:00 23,0 14,2 18 10 - - N 1015,4 10 0,0
22.05.2018 15:00:00 22,9 13,4 13 7 - - NNE 1015,6 10 0,0
22.05.2018 14:00:00 22,2 13,3 13 7 - - NE 1015,5 10 0,0
22.05.2018 13:00:00 21,4 12,2 16 9 - - NNE 1015,3 10 0,0
22.05.2018 12:00:00 20,4 11,5 18 10 - - NNE 1015,1 10 0,0
22.05.2018 11:00:00 18,5 11,3 22 12 - - N 1014,8 10 0,0
22.05.2018 10:00:00 16,7 10,8 21 11 - - N 1014,8 10 0,0
22.05.2018 09:00:00 14,1 10,8 26 14 - - N 1014,7 10 0,0
22.05.2018 08:00:00 12,9 10,5 22 12 - - N 1014,5 10 0,0
22.05.2018 07:00:00 12,0 10,1 24 13 - - N 1014,1 - 0,0
22.05.2018 06:00:00 11,7 9,9 22 12 - - NNW 1013,7 - 0,0
22.05.2018 05:00:00 12,2 10,4 22 12 - - NNW 1013,3 - 0,0
22.05.2018 04:00:00 12,8 11,0 21 11 - - NNW 1013,1 - 0,0
22.05.2018 03:00:00 11,9 10,3 13 7 - - N 1013,3 - 0,0
22.05.2018 02:00:00 12,9 10,8 13 7 - - N 1013,6 - 0,0
22.05.2018 01:00:00 12,8 11,1 13 7 - - NNW 1013,6 - 0,0
22.05.2018 00:00:00 13,2 11,4 11 6 - - N 1014,0 - 0,0
21.05.2018 23:00:00 13,7 11,8 11 6 - - N 1014,2 - 0,0
21.05.2018 22:00:00 14,4 11,9 11 6 - - NNW 1014,0 - 0,0
21.05.2018 21:00:00 16,6 12,8 9 5 - - NNW 1013,9 - 0,0
21.05.2018 20:00:00 16,9 12,8 5 3 - - WNW 1013,7 10 0,0
21.05.2018 19:00:00 18,5 12,4 5 3 - - SW 1013,6 10 0,0
21.05.2018 18:00:00 18,0 12,0 9 5 - - SSE 1013,5 - 0,0
21.05.2018 17:00:00 21,3 11,7 11 6 - - NNW 1013,4 10 0,0
21.05.2018 16:00:00 20,4 12,7 9 5 - - N 1013,9 10 0,0
21.05.2018 15:00:00 20,4 11,5 4 2 - - S 1014,4 10 0,0
21.05.2018 14:00:00 19,4 10,8 13 7 - - NE 1014,8 10 0,0
21.05.2018 13:00:00 19,7 11,3 11 6 - - NNE 1015,1 10 0,0
21.05.2018 12:00:00 19,4 11,3 11 6 - - E 1015,6 10 0,0
21.05.2018 11:00:00 18,5 12,8 16 9 - - NNE 1015,8 7 0,0
21.05.2018 10:00:00 15,4 11,6 18 10 - - NNW 1016,1 7 0,0
21.05.2018 09:00:00 13,9 10,9 18 10 - - N 1016,4 6 0,0
21.05.2018 08:00:00 10,6 9,0 18 10 - - N 1016,5 6 0,0
21.05.2018 07:00:00 9,1 7,9 22 12 - - N 1016,5 - 0,0
21.05.2018 06:00:00 8,3 7,4 22 12 - - NNW 1016,7 - 0,0
21.05.2018 05:00:00 8,4 7,2 22 12 - - N 1016,7 - 0,0
21.05.2018 04:00:00 8,6 7,1 13 7 - - N 1017,3 - 0,0
21.05.2018 03:00:00 9,2 7,6 15 8 - - N 1017,7 - 0,0
21.05.2018 02:00:00 9,1 7,9 13 7 - - N 1018,4 - 0,0
21.05.2018 01:00:00 9,7 7,5 9 5 - - N 1018,9 - 0,0
21.05.2018 00:00:00 10,7 8,2 8 4 - - NNE 1019,1 - 0,0
20.05.2018 23:00:00 11,3 10,5 8 4 - - NNE 1019,5 - 0,0
20.05.2018 22:00:00 9,2 7,8 2 1 - - NNW 1019,7 - 0,0
20.05.2018 21:00:00 11,0 8,3 2 1 - - S 1019,7 - 0,0
20.05.2018 20:00:00 14,1 9,7 5 3 - - SE 1019,3 - 0,0
20.05.2018 19:00:00 15,4 9,3 5 3 - - SE 1019,4 6 0,0
20.05.2018 18:00:00 16,4 9,2 8 4 - - SSE 1019,6 5 0,0
20.05.2018 17:00:00 15,5 10,9 9 5 - - SSE 1020,1 5 0,0
20.05.2018 16:00:00 14,9 10,4 5 3 - - SSE 1020,9 5 0,0
20.05.2018 15:00:00 15,0 10,9 9 5 - - S 1021,7 5 0,0
20.05.2018 14:00:00 15,0 11,1 9 5 - - SSE 1022,3 5 0,0
20.05.2018 13:00:00 14,1 10,4 11 6 - - SSE 1023,0 6 0,0
20.05.2018 12:00:00 13,2 10,5 9 5 - - SE 1023,3 6 0,0
20.05.2018 11:00:00 11,9 9,6 9 5 - - ESE 1023,5 6 0,0
20.05.2018 10:00:00 11,8 9,6 5 3 - - ESE 1023,7 7 0,0
20.05.2018 09:00:00 9,5 9,2 8 4 - - ENE 1023,8 5 0,0
20.05.2018 08:00:00 8,5 8,4 5 3 - - NNE 1023,9 - 0,0
20.05.2018 07:00:00 7,5 7,3 9 5 - - N 1023,5 - 0,0
20.05.2018 06:00:00 7,1 7,0 9 5 - - N 1023,2 - 0,0
20.05.2018 05:00:00 7,9 7,7 8 4 - - NNE 1022,9 - 0,0
20.05.2018 04:00:00 7,9 7,6 8 4 - - NNE 1023,2 - 0,0
20.05.2018 03:00:00 6,9 6,6 8 4 - - E 1023,5 - 0,0
20.05.2018 02:00:00 6,1 5,7 2 1 - - NNE 1023,6 - 0,0
20.05.2018 01:00:00 6,3 5,8 4 2 - - NNE 1023,9 - 0,0
20.05.2018 00:00:00 6,9 6,3 4 2 - - NNE 1024,1 - 0,0
19.05.2018 23:00:00 6,6 5,7 2 1 - - SE 1024,2 - 0,0
19.05.2018 22:00:00 7,4 5,7 4 2 - - SSE 1023,8 - 0,0
19.05.2018 21:00:00 9,5 6,9 4 2 - - S 1023,2 - 0,0
19.05.2018 20:00:00 11,4 8,0 5 3 - - S 1023,0 10 0,0
19.05.2018 19:00:00 12,0 8,4 8 4 - - S 1023,3 9 0,0
19.05.2018 18:00:00 12,6 8,9 9 5 - - S 1023,5 9 0,0
19.05.2018 17:00:00 13,1 9,5 15 8 - - SSW 1023,6 9 0,0
19.05.2018 16:00:00 13,3 9,7 15 8 - - S 1023,8 10 0,0
19.05.2018 15:00:00 13,1 9,2 13 7 - - SSW 1024,2 10 0,0
19.05.2018 14:00:00 12,7 9,1 13 7 - - S 1024,6 10 0,0
19.05.2018 13:00:00 13,5 10,4 13 7 - - S 1024,8 10 0,0
19.05.2018 12:00:00 12,9 9,6 13 7 - - SSE 1025,0 10 0,0
19.05.2018 11:00:00 13,2 10,2 11 6 - - S 1024,9 10 0,0
19.05.2018 10:00:00 13,1 9,5 11 6 - - SSE 1024,8 10 0,0
19.05.2018 09:00:00 12,5 10,0 8 4 - - NNW 1024,6 10 0,0
19.05.2018 08:00:00 10,1 9,3 5 3 - - N 1024,5 - 0,0
19.05.2018 07:00:00 7,1 6,9 8 4 - - N 1024,2 - 0,0
19.05.2018 06:00:00 4,7 4,4 8 4 - - N 1024,0 - 0,0
19.05.2018 05:00:00 3,9 3,6 8 4 - - N 1024,0 - 0,0
19.05.2018 04:00:00 3,5 3,1 5 3 - - N 1024,2 - 0,0
19.05.2018 03:00:00 4,4 3,9 4 2 - - N 1024,4 - 0,0
19.05.2018 02:00:00 4,6 4,1 2 1 - - N 1024,6 - 0,0
19.05.2018 01:00:00 5,0 4,3 4 2 - - NNE 1024,7 - 0,0
19.05.2018 00:00:00 5,8 4,7 0 0 - - N 1024,7 - 0,0
18.05.2018 23:00:00 7,3 5,9 2 1 - - SSE 1024,8 - 0,0
18.05.2018 22:00:00 9,4 7,0 4 2 - - SSE 1024,9 - 0,0
18.05.2018 21:00:00 9,1 6,6 5 3 - - S 1024,7 - 0,0
18.05.2018 20:00:00 10,1 7,1 9 5 - - S 1024,7 10 0,0
18.05.2018 19:00:00 10,8 7,1 9 5 - - S 1024,7 10 0,0
18.05.2018 18:00:00 11,2 6,8 9 5 - - S 1024,7 10 0,0
18.05.2018 17:00:00 11,9 7,3 11 6 - - S 1024,9 10 0,0
18.05.2018 16:00:00 11,8 8,0 11 6 - - S 1025,0 10 0,0
18.05.2018 15:00:00 11,7 7,6 13 7 - - S 1025,2 10 0,0
18.05.2018 14:00:00 12,3 7,6 13 7 - - S 1025,4 10 0,0
18.05.2018 13:00:00 12,5 7,5 15 8 - - S 1025,7 10 0,0
18.05.2018 12:00:00 12,7 7,6 15 8 - - S 1025,8 10 0,0
18.05.2018 11:00:00 12,7 7,7 11 6 - - S 1026,0 - 0,0
18.05.2018 10:00:00 11,3 6,8 9 5 - - NW 1026,4 10 0,0
18.05.2018 09:00:00 10,2 6,8 11 6 - - NNE 1026,4 10 0,0
18.05.2018 08:00:00 8,0 6,5 11 6 - - N 1026,7 10 0,0
18.05.2018 07:00:00 6,1 5,7 11 6 - - N 1026,4 - 0,0

tt = temperature
td = dewpoint
ff = wind speed
fx = gusts
dd = wind direction
ppp = reduced air pressure
vv = visibility
rr = precipitation

Next stations